Tracking 29892 objects as of 21-Nov-2024
HD Live streaming from Space Station
objects crossing your sky now

THORAD AGENA D DEB

Track THORAD AGENA D DEB now!
10-day predictions


NORAD ID: 4681
Int'l Code: 1970-025BE
Perigee: 1,051.2 km
Apogee: 1,421.7 km
Inclination: 99.9 °
Period: 110.1 minutes
Semi major axis: 7607 km
RCS: 0.0728 m2 (small)
Launch date: April 8, 1970
Source: United States (US)
Launch site: AIR FORCE WESTERN TEST RANGE (AFWTR)

Note: This is SATELLITE DEBRIS
Your satellite tracking list
Your tracking list is empty




NASA's NSSDC Master Catalog

Two Line Element Set (TLE):
1  4681U 70025BE  24325.96391416  .00000319  00000-0  91920-3 0  9995
2  4681  99.8975 221.3882 0243563 281.6955 142.0922 13.08412924600687
Source of the keplerian elements: AFSPC